Flag for Canada Weather past 2 weeks in Oakville, Ontario, Canada

Now
21 °F

Cold.


Feels Like: 9 °F
Forecast: 16 / 31 °F
Wind: 12 mph from North

Location: Burlington Piers

Current Time: Mar 28, 2015 at 1:39:35 AM

Latest Report: Mar 28, 2015 at 1:00 AM


Visibility: N/A

Pressure: 30.09 "Hg

Humidity: 54%

Dew point: 7 °F

Location of OakvilleLocation

Historic Weather in Oakville — Graph

°F

Oakville temperature yesterday

Maximum temperature yesterday: 36 °F (at 1:00 AM)
Minimum temperature yesterday: 20 °F (at 10:00 PM)
Average temperature yesterday: 29 °F

Past Weeks' High & Low Weather Summary

 TemperatureHumidityPressure
High48 °F (Mar 16, 4:00 PM)100% (Mar 25, 3:00 PM)30.59 "Hg (Mar 25, 3:00 PM)
Low15 °F (Mar 23, 9:00 AM)27% (Mar 17, 2:00 PM)29.67 "Hg (Mar 17, 2:00 AM)
Average32 °F65%30.10 "Hg
* Reported Midnight between Mar 12 and Mar 13 — Midnight between Mar 27 and Mar 28, Oakville, Weather by CustomWeather, © 2015

Note: Actual official high and low records may vary slightly from our data, if they occured in-between our weather recording intervals... More about our weather records

Advertising

Oakville weather history for previous 24 hours

 ConditionsComfort  
Time TempWeatherWind HumidityBarometerVisibility
12:00 AM
Sat, Mar 28
22 °FCold.10 mph50%30.09 "HgN/A
11:00 PM
Fri, Mar 27
22 °FCold.6 mph58%30.08 "HgN/A
10:00 PM20 °FCold.12 mph59%30.07 "HgN/A
9:00 PM21 °FCold.14 mph61%30.05 "HgN/A
8:00 PM22 °FCold.15 mph59%30.02 "HgN/A
7:00 PM24 °FCold.15 mph58%30.00 "HgN/A
6:00 PM28 °FChilly.15 mph50%29.97 "HgN/A
5:00 PM27 °FChilly.13 mph55%29.94 "HgN/A
4:00 PM27 °FChilly.13 mph60%29.93 "HgN/A
3:00 PM28 °FChilly.10 mph61%29.93 "HgN/A
2:00 PM31 °FChilly.3 mph57%29.93 "HgN/A
1:00 PM29 °FChilly.10 mph62%29.91 "HgN/A
12:00 PM29 °FChilly.10 mph60%29.91 "HgN/A
11:00 AM30 °FChilly.12 mph67%29.90 "HgN/A
10:00 AM31 °FChilly.7 mph72%29.89 "HgN/A
9:00 AM32 °FChilly.6 mph69%29.87 "HgN/A
8:00 AM33 °FChilly.3 mph66%29.88 "HgN/A
7:00 AM31 °FChilly.13 mph70%29.87 "HgN/A
6:00 AM31 °FChilly.10 mph73%29.86 "HgN/A
5:00 AM32 °FChilly.7 mph76%29.85 "HgN/A
4:00 AM34 °FChilly.6 mph76%29.85 "HgN/A
3:00 AM35 °FChilly.8 mph76%29.83 "HgN/A
2:00 AM35 °FChilly.10 mph78%29.83 "HgN/A
1:00 AM36 °FChilly.7 mph75%29.83 "HgN/A
Weather by CustomWeather, © 2015

See weather overviewHow to use our weather pages